TimeEDT,TemperatureF,Dew PointF,Humidity,Sea Level PressureIn,VisibilityMPH,Wind Direction,Wind SpeedMPH,Gust SpeedMPH,PrecipitationIn,Events,Conditions,WindDirDegrees,DateUTC
12:14 AM,43.7,30.7,60,29.56,10.0,SE,12.7,-,N/A,Rain,Light Rain,140,2013-04-07 04:14:00
12:34 AM,44.6,30.7,58,29.54,10.0,SSE,10.4,19.6,N/A,,Overcast,150,2013-04-07 04:34:00
12:54 AM,45.1,32.0,60,29.52,10.0,SSE,12.7,-,N/A,,Overcast,160,2013-04-07 04:54:00
1:15 AM,46.0,32.7,60,29.51,10.0,SSE,11.5,19.6,N/A,,Overcast,160,2013-04-07 05:15:00
1:34 AM,44.1,35.8,73,29.50,10.0,SSE,11.5,16.1,N/A,Rain,Light Rain,160,2013-04-07 05:34:00
1:54 AM,45.3,38.7,78,29.49,10.0,South,10.4,18.4,N/A,,Drizzle,170,2013-04-07 05:54:00
2:14 AM,46.4,40.8,81,29.48,7.0,South,13.8,21.9,N/A,,Drizzle,180,2013-04-07 06:14:00
2:34 AM,46.0,42.3,87,29.47,7.0,South,12.7,19.6,N/A,Rain,Light Rain,180,2013-04-07 06:34:00
2:55 AM,46.8,44.1,90,29.46,7.0,SSW,10.4,21.9,N/A,Rain,Light Rain,200,2013-04-07 06:55:00
3:14 AM,46.6,45.3,95,29.45,4.0,South,12.7,18.4,N/A,,Light Drizzle,190,2013-04-07 07:14:00
3:34 AM,46.6,45.7,97,29.44,4.0,SSW,9.2,21.9,N/A,,Drizzle,210,2013-04-07 07:34:00
3:55 AM,47.1,46.6,98,29.44,4.0,SSW,15.0,19.6,N/A,Rain,Rain,210,2013-04-07 07:55:00
4:14 AM,47.3,46.8,98,29.44,4.0,SW,9.2,16.1,N/A,,Light Drizzle,230,2013-04-07 08:14:00
4:34 AM,45.5,45.1,99,29.44,2.0,WSW,17.3,25.3,N/A,Rain,Rain,250,2013-04-07 08:34:00
4:55 AM,42.1,41.7,99,29.45,3.0,WSW,13.8,23.0,N/A,,Overcast,250,2013-04-07 08:55:00
5:14 AM,40.1,40.1,100,29.46,2.0,WSW,15.0,19.6,N/A,,Overcast,250,2013-04-07 09:14:00
5:34 AM,38.3,38.3,100,29.47,1.5,West,12.7,20.7,N/A,,Overcast,270,2013-04-07 09:34:00
5:54 AM,37.2,37.2,100,29.48,1.5,West,15.0,19.6,N/A,Rain,Light Rain,270,2013-04-07 09:54:00
6:14 AM,35.6,35.6,100,29.51,2.5,West,17.3,-,N/A,Rain,Light Rain,280,2013-04-07 10:14:00
6:34 AM,35.1,35.1,100,29.53,2.5,West,18.4,24.2,N/A,Rain,Light Rain,280,2013-04-07 10:34:00
6:54 AM,34.7,34.7,100,29.55,3.0,West,20.7,24.2,N/A,Rain,Light Rain,280,2013-04-07 10:54:00
7:14 AM,33.4,33.4,100,29.58,2.0,West,19.6,26.5,N/A,Snow,Light Snow,280,2013-04-07 11:14:00
7:34 AM,32.9,32.9,100,29.60,0.8,West,19.6,25.3,N/A,Snow,Light Snow,280,2013-04-07 11:34:00
7:55 AM,32.9,32.9,100,29.62,0.5,West,13.8,-,N/A,Snow,Snow,270,2013-04-07 11:55:00
8:14 AM,32.9,32.9,100,29.64,1.8,West,15.0,-,N/A,Snow,Light Snow,270,2013-04-07 12:14:00
8:34 AM,33.8,33.8,100,29.66,10.0,West,15.0,-,N/A,Snow,Light Snow,280,2013-04-07 12:34:00
8:55 AM,34.0,34.0,100,29.67,10.0,West,17.3,21.9,N/A,,Overcast,280,2013-04-07 12:55:00
9:14 AM,34.3,34.2,99,29.68,10.0,WNW,17.3,-,N/A,,Overcast,290,2013-04-07 13:14:00
9:35 AM,34.7,34.2,98,29.70,10.0,WNW,19.6,23.0,N/A,,Overcast,290,2013-04-07 13:35:00
9:55 AM,34.9,34.7,99,29.71,10.0,WNW,16.1,24.2,N/A,,Overcast,290,2013-04-07 13:55:00
10:14 AM,35.4,34.9,98,29.72,10.0,WNW,16.1,23.0,N/A,,Overcast,290,2013-04-07 14:14:00
10:35 AM,35.8,35.1,97,29.74,10.0,WNW,13.8,23.0,N/A,,Overcast,290,2013-04-07 14:35:00
10:55 AM,36.0,35.1,97,29.76,10.0,WNW,15.0,20.7,N/A,,Overcast,290,2013-04-07 14:55:00
11:14 AM,36.0,34.9,96,29.78,10.0,WNW,16.1,-,N/A,,Overcast,290,2013-04-07 15:14:00
11:35 AM,36.1,34.7,94,29.80,10.0,WNW,13.8,18.4,N/A,,Overcast,290,2013-04-07 15:35:00
11:54 AM,36.1,34.9,95,29.82,10.0,West,16.1,-,N/A,,Overcast,280,2013-04-07 15:54:00
12:15 PM,36.7,34.7,93,29.83,10.0,WNW,12.7,-,N/A,,Overcast,290,2013-04-07 16:15:00
12:35 PM,37.0,34.5,91,29.85,10.0,WNW,13.8,19.6,N/A,,Overcast,290,2013-04-07 16:35:00
12:54 PM,37.9,35.1,89,29.86,10.0,WNW,13.8,-,N/A,,Overcast,290,2013-04-07 16:54:00
1:15 PM,37.8,34.3,87,29.87,10.0,West,16.1,-,N/A,,Overcast,280,2013-04-07 17:15:00
1:34 PM,39.0,35.1,86,29.88,10.0,West,18.4,-,N/A,,Overcast,280,2013-04-07 17:34:00
1:54 PM,39.2,34.2,82,29.89,10.0,West,18.4,-,N/A,,Overcast,280,2013-04-07 17:54:00
2:15 PM,38.5,33.6,83,29.91,10.0,West,15.0,25.3,N/A,,Overcast,280,2013-04-07 18:15:00
2:34 PM,38.8,33.6,82,29.92,10.0,West,18.4,23.0,N/A,,Overcast,280,2013-04-07 18:34:00
2:54 PM,38.5,33.1,81,29.94,10.0,West,15.0,20.7,N/A,,Overcast,280,2013-04-07 18:54:00
3:14 PM,39.0,33.4,80,29.94,10.0,West,15.0,-,N/A,,Overcast,280,2013-04-07 19:14:00
3:34 PM,39.4,33.1,78,29.94,10.0,West,13.8,19.6,N/A,,Overcast,280,2013-04-07 19:34:00
3:55 PM,40.1,33.8,78,29.95,10.0,West,13.8,-,N/A,,Overcast,280,2013-04-07 19:55:00
4:14 PM,38.8,32.9,79,29.96,10.0,West,15.0,-,N/A,,Overcast,270,2013-04-07 20:14:00
4:34 PM,38.3,32.5,80,29.97,10.0,West,15.0,-,N/A,,Overcast,270,2013-04-07 20:34:00
4:55 PM,38.3,32.4,79,29.98,10.0,West,15.0,-,N/A,,Overcast,280,2013-04-07 20:55:00
5:14 PM,38.3,32.2,79,29.99,10.0,West,13.8,-,N/A,,Overcast,280,2013-04-07 21:14:00
5:34 PM,37.6,32.0,80,30.00,10.0,West,10.4,-,N/A,,Overcast,280,2013-04-07 21:34:00
5:55 PM,37.8,30.9,76,30.01,10.0,WNW,10.4,-,N/A,,Overcast,290,2013-04-07 21:55:00
6:14 PM,37.8,30.4,75,30.01,10.0,NW,9.2,-,N/A,,Overcast,310,2013-04-07 22:14:00
6:35 PM,37.2,30.7,77,30.01,10.0,NNW,5.8,-,N/A,,Mostly Cloudy,330,2013-04-07 22:35:00
6:55 PM,37.0,30.4,77,30.01,10.0,NW,5.8,-,N/A,,Mostly Cloudy,320,2013-04-07 22:55:00
7:14 PM,36.3,29.3,76,30.00,10.0,NNW,4.6,-,N/A,,Mostly Cloudy,330,2013-04-07 23:14:00
7:35 PM,36.1,29.5,77,30.02,10.0,West,3.5,-,N/A,,Mostly Cloudy,260,2013-04-07 23:35:00
7:55 PM,36.1,30.2,79,30.03,10.0,West,4.6,-,N/A,,Overcast,270,2013-04-07 23:55:00
8:14 PM,36.0,29.8,78,30.03,10.0,WNW,3.5,-,N/A,,Overcast,290,2013-04-08 00:14:00
8:35 PM,35.2,30.2,82,30.03,10.0,Calm,Calm,-,N/A,,Overcast,0,2013-04-08 00:35:00
8:54 PM,35.1,30.0,82,30.03,10.0,Calm,Calm,-,N/A,,Overcast,0,2013-04-08 00:54:00
9:15 PM,34.5,30.0,84,30.03,10.0,Calm,Calm,-,N/A,,Overcast,0,2013-04-08 01:15:00
9:34 PM,33.8,30.7,89,30.04,10.0,Calm,Calm,-,N/A,,Mostly Cloudy,0,2013-04-08 01:34:00
9:55 PM,32.4,30.2,92,30.05,10.0,Calm,Calm,-,N/A,,Scattered Clouds,0,2013-04-08 01:55:00
10:14 PM,31.8,30.0,93,30.05,10.0,Calm,Calm,-,N/A,,Clear,0,2013-04-08 02:14:00
10:34 PM,31.1,30.0,96,30.06,10.0,Calm,Calm,-,N/A,,Clear,0,2013-04-08 02:34:00
10:54 PM,30.2,29.8,99,30.07,10.0,Calm,Calm,-,N/A,,Clear,0,2013-04-08 02:54:00
11:14 PM,29.5,29.3,99,30.06,10.0,SE,3.5,-,N/A,,Clear,140,2013-04-08 03:14:00
11:34 PM,29.5,29.3,99,30.07,10.0,Calm,Calm,-,N/A,,Clear,0,2013-04-08 03:34:00
11:54 PM,29.1,29.1,100,30.07,10.0,Calm,Calm,-,N/A,,Clear,0,2013-04-08 03:54:00